{"data":{"norad_id":54177,"intl_designator":"2022-141W","name":"STARLINK-5186","alt_names":[],"object_type":"PAYLOAD","status":"ACTIVE","operator":null,"country":"US","launch_date":"2022-10-28","launch_site_code":"AFWTR","launch_vehicle":null,"mission":null,"orbit_class":"UNKNOWN","rcs_meters":null,"size_class":null,"mass_kg":null,"dimensions":null,"purposes":["comms"],"wikipedia_slug":null,"has_3d_model":false,"image_url":null,"decayed_at":null,"tle_current":{"epoch":"2026-09-20T07:20:24.864576Z","epoch_age_seconds":106451,"freshness":"FRESH","line1":"1 54177U 22141W   26263.30584334  .00000313  00000+0  20414-4 0  9994","line2":"2 54177  53.1588 194.6686 0001347 101.1949 258.9205 15.34399800215456","mean_motion":15.343998,"eccentricity":0.0001347,"inclination_deg":53.1588,"raan_deg":194.6686,"arg_perigee_deg":101.1949,"mean_anomaly_deg":258.9205,"bstar":2.0414e-5,"rev_number":21545,"period_min":93.847770313839,"perigee_km":461.78237338889,"apogee_km":463.62529590974,"semimajor_km":6840.8408346493,"source":"CELESTRAK","updated_at":"2026-09-21T09:00:33.091822Z"}}}